www.pogodaiklimat.ru

Погода и климат >> Архив погоды >> Россия >> Мордовия >> Краснослободск


ПОГОДА в Краснослободске

  • Прогноз погоды в Краснослободске
  • Монитор погоды в Краснослободске
  • Климат города

АРХИВ ПОГОДЫ в Краснослободске

Время (UTC), дата Ветер
(напр.,м/с)
 
Видим.   Явления Облачность Т
(С)
Тd
(С)
f
(%)
Тe
(С)
Тes
(С)
Комфортность P
(гПа)
Po
(гПа)
Тmin
(С)
Tmax
(С)
R
(мм)
R24
(мм)
S
(см)
21 9.08 С 2-2
{2}
10 км 4/0
[Ci fib]
+12.0 +7.0 71 +11 +11 1026.8 1004.0
00 10.08 С 2-4
{4}
10 км 8/8 1000 м
[Sc]
+12.6 +8.4 76 +12 +12 1027.0 1004.3
03 10.08 СЗ 2-2
{2}
20 км 3/0
[Ci fib]
+12.5 +7.8 73 +12 +12 1028.2 1005.5 +10.6
06 10.08 СЗ 2-2
{2}
20 км ясно +18.9 +8.5 51 +20 +28 1027.4 1005.2
09 10.08 З 4-4
{4}
20 км 4/4 1000 м
[Cu hum]
+23.6 +9.7 41 +25 +30 комфорт 1026.6 1004.7
12 10.08 СЗ 4-6
{6}
20 км 6/6 1000 м
[Cu hum]
+25.7 +10.0 37 +26 +29 жарко 1024.8 1003.1
15 10.08 С 4-4
{4}
20 км ясно +25.9 +9.0 34 +26 +27 жарко 1024.0 1002.4 +26.2
18 10.08 З 2-2
{2}
10 км 3/0
[Ci fib]
+19.7 +10.5 55 +22 +22 комфорт 1024.4 1002.3
21 10.08 З 2-2
{2}
10 км ясно +17.7 +10.9 64 +18 +18 1024.6 1002.4
00 11.08 штиль 0 10 км ясно +16.3 +11.1 71 +16 +16 1024.5 1002.2
03 11.08 З 2-2
{2}
20 км ясно +17.3 +11.2 67 +18 +18 1024.5 1002.3 +16.2
06 11.08 СЗ 2-4
{4}
20 км 4/0
[Ci fib]
+24.5 +13.4 50 +27 +34 жарко 1023.5 1001.8
09 11.08 З 4-8
{8}
20 км 3/0
[Ci fib]
+27.5 +12.4 39 +29 +37 жарко 1022.7 1001.2
12 11.08 СЗ 6-8
{8}
20 км ясно +29.0 +12.3 36 +30 +33 жарко 1020.4 999.1
15 11.08 СЗ 4-6
{6}
20 км ясно +27.7 +9.5 32 +28 +29 жарко 1019.5 998.0 +29.3
18 11.08 З 2-4
{4}
10 км ясно +21.6 +9.5 46 +23 +23 комфорт 1020.1 998.2
21 11.08 З 2-4
{4}
10 км ясно +18.1 +10.5 61 +19 +19 1019.4 997.4
00 12.08 З 2-4
{4}
10 км ясно +15.6 +9.7 68 +16 +16 1019.2 997.0
03 12.08 ЮЗ 2-2
{2}
20 км ясно +15.2 +10.5 74 +15 +16 1018.9 996.7 +14.8
06 12.08 Ю 2-4
{4}
20 км ясно +23.1 +12.0 50 +26 +33 жарко 1017.5 995.9
09 12.08 З 2-4
{4}
20 км ясно +27.0 +6.5 27 +26 +39 жарко 1016.3 994.9
12 12.08 Ю 2 20 км 3/0
[Ci fib]
+28.7 +6.8 25 +28 +35 жарко 1014.6 993.3
15 12.08 З 2-4
{4}
20 км 3/0
[Ci fib]
+28.4 +8.9 29 +28 +29 жарко 1012.9 991.7 +29.0
18 12.08 З 2-4
{4}
10 км 3/0
[Ci fib]
+23.5 +11.0 45 +25 +25 комфорт 1012.3 990.8
21 12.08 З 2-4
{4}
10 км ясно +20.7 +11.1 54 +23 +23 комфорт 1012.0 990.2
00 13.08 З 2-4
{4}
10 км ясно +18.3 +11.1 63 +19 +19 1011.5 989.6
03 13.08 З 4-6
{6}
20 км 10/0
[Cc]
+17.2 +11.3 68 +17 +17 1011.9 989.9 +17.1
06 13.08 СЗ 2-4
{4}
20 км 8/0
[Ci fib]
+21.7 +12.2 55 +24 +30 комфорт 1011.8 990.1
09 13.08 З 4-6
{6}
20 км 4/0
[Ci fib]
+25.8 +10.4 38 +27 +35 жарко 1011.3 989.9
12 13.08 З 4-8
{8}
20 км 3/0
[Ci fib]
+26.5 +6.5 28 +26 +31 жарко 1010.1 988.8
15 13.08 З 4-6
{6}
20 км 6/0
[Ci fib]
+24.7 +5.5 29 +24 +25 комфорт 1010.0 988.5 +26.8
18 13.08 штиль 0 10 км 8/0
[Ci fib]
+18.1 +5.6 44 +18 +18 1011.0 989.0
21 13.08 СЗ 2-2
{2}
10 км 10/0
[As trans]
+16.8 +7.1 53 +17 +17 1011.8 989.7
00 14.08 С 2-2
{2}
10 км 9/0
[Ci fib]
+15.0 +7.6 61 +15 +15 1012.3 990.1
03 14.08 З 2-2
{2}
20 км в посл. час ливневой дождь 10/10 300 м
[Cb cap]
+15.1 +9.7 70 +15 +15 1012.9 990.7 +14.8 0.0
06 14.08 З 4-6
{6}
20 км {ливн. осадки} 8/0
[As trans]
+17.9 +10.9 64 +18 +20 1014.0 992.0
09 14.08 З 4-8
{8}
20 км 8/8 1000 м
[Cu hum]
+22.4 +9.7 44 +24 +26 комфорт 1014.2 992.5
12 14.08 З 4-6
{6}
20 км 6/6 1000 м
[Cu hum]
+23.7 +7.3 35 +24 +26 комфорт 1014.2 992.6
15 14.08 СЗ 4-6
{6}
20 км 4/4 1000 м
[Cu hum]
+23.0 +7.0 36 +24 +24 комфорт 1014.5 992.8 +24.0
18 14.08 штиль 0 10 км 3/0
[Ci fib]
+18.0 +7.6 51 +18 +18 1016.4 994.3
21 14.08 З 2-2
{2}
10 км ясно +16.3 +7.8 57 +16 +16 1017.3 995.1
00 15.08 З 2-2
{2}
10 км ясно +12.3 +8.5 78 +11 +11 1018.1 995.6
03 15.08 СЗ 2-2
{2}
20 км 4/0
[Ci fib]
+11.5 +7.8 78 +10 +11 1018.7 996.1 +11.0
06 15.08 Ю 2-2
{2}
20 км 4/0
[Ci fib]
+19.6 +11.4 59 +21 +28 комфорт 1017.9 996.0
09 15.08 Ю 2-4
{4}
20 км 8/8 1000 м
[Cu med, cong]
+25.3 +9.7 37 +26 +28 жарко 1016.6 995.1
12 15.08 ЮЗ 4-6
{6}
20 км 6/6 1000 м
[Cu med, cong]
+27.4 +10.6 35 +28 +30 жарко 1015.3 993.9
15 15.08 ЮЗ 4-6
{6}
20 км 10/0
[As op]
+25.8 +11.2 40 +27 +27 жарко 1014.5 993.0 +27.7
18 15.08 ЮЗ 2-4
{4}
10 км в посл. час ливневой дождь 10/10 300 м
[Cb cap]
+22.9 +13.4 55 +26 +26 жарко 1014.1 992.5
21 15.08 ЮЗ 2-2
{2}
10 км ясно +21.9 +11.3 51 +24 +24 комфорт 1013.2 991.5
00 16.08 ЮЗ 2-2
{2}
10 км 8/0
[Ci fib]
+20.3 +10.6 54 +23 +23 комфорт 1013.0 991.2
03 16.08 ЮЗ 2-4
{4}
20 км 4/0
[Ci fib]
+19.8 +11.3 58 +22 +22 комфорт 1013.1 991.3 +19.4 0.7
06 16.08 СЗ 4-6
{6}
20 км ясно +23.4 +13.8 55 +27 +32 душно 1013.4 991.9
09 16.08 С 4-6
{6}
20 км 10/0
[Cc]
+27.9 +12.3 38 +29 +36 жарко 1013.3 992.1
12 16.08 С 6-8
{8}
20 км 10/0
[As op]
+25.5 +12.1 43 +27 +28 жарко 1014.3 992.8
15 16.08 С 4-6
{6}
20 км 10/0
[As op]
+22.0 +13.3 58 +25 +25 комфорт 1015.0 993.3 +28.2
18 16.08 С 4-6
{6}
10 км 10/0
[As op]
+18.6 +14.7 78 +19 +19 1016.6 994.7

 

Местоположение метеостанции Краснослободск (Мордовия, Россия): широта 54.43 долгота 43.77 высота над уровнем моря 188 м.

В архиве по умолчанию представлена погода в Краснослободске за последнюю неделю. Архивные данные за месяц целиком и за предыдущие месяцы, начиная с января 2011 года, Вы можете получить, выбрав интересующий диапазон дат из раскрывающегося списка и нажав кнопку "Ввод!".


*Определитесь, кто Вы:
робот инопланетянин человек

Внимание! Время в таблицах - всемирное. Для получения местного времени необходимо прибавить поправку, которая в Краснослободске равна 3 ч.

Смотрите также архив погоды в соседних городах и на ближайших метеорологических станциях:

Погода в Темникове (Мордовия, Россия) (41 км)
Погода в Торбеево (Мордовия, Россия) (52 км)
Погода в Инсаре (Мордовия, Россия) (74 км)
Погода в Лукоянове (Нижегородская область, Россия) (82 км)
Погода в Саранске (Мордовия, Россия) (102 км)
Погода в Арзамасе (Нижегородская область, Россия) (105 км)
Погода в Сасово (Рязанская область, Россия) (116 км)
Погода в Большом Болдино (Нижегородская область, Россия) (119 км)
Погода в Пачелме (Пензенская область, Россия) (126 км)
Погода в Земетчино (Пензенская область, Россия) (129 км)

Пояснения к столбцам:

Ветер - указаны скорость ветра в м/с - средняя за 10 мин, порывы в срок и между сроками (в фигурных скобках) и направление, откуда дует ветер: С - северный, СВ - северо-восточный, В - восточный, ЮВ - юго-восточный, Ю - южный, ЮЗ - юго-западный, З - западный, СЗ - северо-западный.
Видимость - горизонтальная дальность видимости в метрах или километрах. При видимости от 1 до 10 км при отсутствии осадков обычно наблюдается дымка, при ухудшении видимости до 1 км и менее - туман. В сухую погоду видимость может ухудшаться дымом, пылью или мглою.
Явления - указаны атмосферные явления, наблюдавшиеся в срок или в последний час перед сроком; фигурными скобками обозначены явления, наблюдавшиеся между сроками (за 1-3 часа до срока); квадратными скобками обозначены град или гололедные отложения с указанием их диаметра в мм.
Облачность - указаны через наклонную черту общая и нижняя облачность в баллах и высота нижней границы облаков в метрах; квадратными скобками обозначены формы облаков: Ci - перистые, Cs - перисто-слоистые, Cc - перисто-кучевые, Ac - высококучевые, As - высокослоистые, Sc - слоисто-кучевые, Ns - слоисто-дождевые, Cu - кучевые, Cb - кучево-дождевые. Подробнее классификацию облаков см. в Атласе облаков (PDF).
T - Температура воздуха - температура, измеренная на высоте 2 м над землей.
Td - Температура точки росы - температура, при понижении до которой содержащийся в воздухе водяной пар достигнет насыщения.
f - Относительная влажность воздуха - влажноcть воздуха, измеренная на высоте 2 м над землей.
Te - Эффективная температура - температура, которую ощущает одетый по сезону человек в тени. Характеристика душности погоды. При расчете учитывается влияние влажности воздуха и скорости ветра на теплоощущения человека.
Tes - Эффективная температура на солнце - температура, которую ощущает человек, с поправкой на солнечный нагрев. Характеристика знойности погоды. Зависит от высоты солнца над горизонтом, облачности и скорости ветра. Ночью, в пасмурную погоду, а также при ветре 12 м/с и более поправка равна нулю.
P - Атмосферное давление - приведенное к уровню моря атмосферное давление.
Po - Атмосферное давление - измеренное на уровне метеостанции атмосферное давление.
Tmin - Минимальная температура - минимум температуры воздуха на высоте 2 м над землей.
Tmax - Максимальная температура - максимум температуры воздуха на высоте 2 м над землей.
R - Количество осадков - Количество выпавших осадков за период времени, мм. При наведении курсора мыши на число - период времени, за который выпало указанное количество осадков.
R24 - Количество осадков - Количество выпавших осадков за 24 часа, мм.
S - Снежный покров - Высота снежного покрова, см. При наведении курсора мыши на число - состояние снежного покрова и степень покрытия местности в баллах.